User: anonymous   Login
Location: Asheville, NC
(35.6000°N, 82.5500°W)
Time: 00:30:10
(UTC-04:00)
Language:

LO-87 - Orbit

View from above orbital plane
View from above orbital plane
View from above satellite
View from above satellite

Ground track
Ground track

The orbit data is extracted from the following two-line orbital elements,

1 41557U 16033B   18171.31575392  .00001307  00000-0  50434-4 0  9999
2 41557  97.4377 255.5262 0015455 146.9931 213.2276 15.28013120114632
Epoch (UTC): 20 June 2018 07:34:41
Eccentricity: 0.0015455
inclination: 97.4377°
perigee height: 471 km
apogee height: 492 km
right ascension of ascending node: 255.5262°
argument of perigee: 146.9931°
revolutions per day: 15.28013120
mean anomaly at epoch: 213.2276°
orbit number at epoch: 11463

The dashed part of the orbit path shows where the satellite is in the earth's shadow,  

DLR